Time,TemperatureF,DewpointF,PressureIn,WindDirection,WindDirectionDegrees,WindSpeedMPH,WindSpeedGustMPH,Humidity,HourlyPrecipIn,Conditions,Clouds,dailyrainin,SoftwareType,DateUTC
2013-10-30 00:01:00,27.0,24.0,-100.00,North,-999,0.0,0.0,90,-99.99,,,0.00,,2013-10-30 06:01:00,
2013-10-30 00:42:00,27.0,24.0,-100.00,North,-999,0.0,0.0,90,-99.99,,,0.00,,2013-10-30 06:42:00,
2013-10-30 00:52:00,27.0,24.0,-100.00,North,-999,0.0,0.0,90,-99.99,,,0.00,,2013-10-30 06:52:00,
2013-10-30 01:00:00,27.0,24.0,-100.00,North,-999,0.0,0.0,90,-99.99,,,0.00,,2013-10-30 07:00:00,
2013-10-30 01:21:00,27.0,24.0,-100.00,North,-999,0.0,0.0,90,-99.99,,,0.00,,2013-10-30 07:21:00,
2013-10-30 01:42:00,27.0,24.0,-100.00,North,-999,0.0,0.0,90,-99.99,,,0.00,,2013-10-30 07:42:00,
2013-10-30 01:52:00,27.0,24.0,-100.00,North,-999,0.0,0.0,90,-99.99,,,0.00,,2013-10-30 07:52:00,
2013-10-30 02:00:00,26.0,23.0,-100.00,North,-999,0.0,0.0,90,-99.99,,,0.00,,2013-10-30 08:00:00,
2013-10-30 02:21:00,26.0,24.0,-100.00,North,-999,0.0,0.0,90,-99.99,,,0.00,,2013-10-30 08:21:00,
2013-10-30 02:42:00,26.0,23.0,-100.00,North,-999,0.0,0.0,90,-99.99,,,0.00,,2013-10-30 08:42:00,
2013-10-30 02:52:00,26.0,23.0,-100.00,North,-999,0.0,0.0,90,-99.99,,,0.00,,2013-10-30 08:52:00,
2013-10-30 03:00:00,26.0,23.0,-100.00,North,-999,0.0,0.0,89,-99.99,,,0.00,,2013-10-30 09:00:00,
2013-10-30 03:22:00,26.0,23.0,-100.00,North,-999,0.0,0.0,89,-99.99,,,0.00,,2013-10-30 09:22:00,
2013-10-30 03:42:00,26.0,23.0,-100.00,North,-999,0.0,0.0,89,-99.99,,,0.00,,2013-10-30 09:42:00,
2013-10-30 03:54:00,26.0,23.0,-100.00,North,-999,0.0,0.0,89,-99.99,,,0.00,,2013-10-30 09:54:00,
2013-10-30 04:23:00,27.0,24.0,-100.00,North,-999,0.0,0.0,89,-99.99,,,0.00,,2013-10-30 10:23:00,
2013-10-30 04:43:00,26.0,24.0,-100.00,North,-999,0.0,0.0,89,-99.99,,,0.00,,2013-10-30 10:43:00,
2013-10-30 04:53:00,26.0,24.0,-100.00,North,-999,0.0,0.0,89,-99.99,,,0.00,,2013-10-30 10:53:00,
2013-10-30 05:01:00,24.0,22.0,-100.00,North,-999,0.0,0.0,89,-99.99,,,0.00,,2013-10-30 11:01:00,
2013-10-30 05:12:00,25.0,23.0,-100.00,North,-999,0.0,0.0,89,-99.99,,,0.00,,2013-10-30 11:12:00,
2013-10-30 05:42:00,24.0,22.0,-100.00,North,-999,0.0,0.0,89,-99.99,,,0.00,,2013-10-30 11:42:00,
2013-10-30 05:52:00,24.0,22.0,-100.00,North,-999,0.0,0.0,89,-99.99,,,0.00,,2013-10-30 11:52:00,
2013-10-30 06:00:00,23.0,19.0,-100.00,North,-999,0.0,0.0,88,-99.99,,,0.00,,2013-10-30 12:00:00,
2013-10-30 06:22:00,24.0,21.0,-100.00,North,-999,0.0,0.0,89,-99.99,,,0.00,,2013-10-30 12:22:00,
2013-10-30 06:42:00,23.0,19.0,-100.00,North,-999,0.0,0.0,88,-99.99,,,0.00,,2013-10-30 12:42:00,
2013-10-30 06:52:00,23.0,19.0,-100.00,North,-999,0.0,0.0,88,-99.99,,,0.00,,2013-10-30 12:52:00,
2013-10-30 07:22:00,22.0,19.0,-100.00,North,-999,0.0,0.0,88,-99.99,,,0.00,,2013-10-30 13:22:00,
2013-10-30 07:42:00,23.0,20.0,-100.00,North,-999,0.0,0.0,88,-99.99,,,0.00,,2013-10-30 13:42:00,
2013-10-30 07:52:00,23.0,20.0,-100.00,North,-999,0.0,0.0,88,-99.99,,,0.00,,2013-10-30 13:52:00,
2013-10-30 08:00:00,23.0,20.0,-100.00,North,-999,0.0,0.0,87,-99.99,,,0.00,,2013-10-30 14:00:00,
2013-10-30 08:11:00,23.0,19.0,-100.00,North,-999,0.0,0.0,88,-99.99,,,0.00,,2013-10-30 14:11:00,
2013-10-30 08:21:00,23.0,19.0,-100.00,North,-999,0.0,0.0,88,-99.99,,,0.00,,2013-10-30 14:21:00,
2013-10-30 08:42:00,23.0,20.0,-100.00,North,-999,0.0,0.0,87,-99.99,,,0.00,,2013-10-30 14:42:00,
2013-10-30 08:52:00,23.0,20.0,-100.00,North,-999,0.0,0.0,87,-99.99,,,0.00,,2013-10-30 14:52:00,
2013-10-30 09:00:00,27.0,24.0,-100.00,North,-999,0.0,0.0,89,-99.99,,,0.00,,2013-10-30 15:00:00,
2013-10-30 09:22:00,25.0,22.0,-100.00,North,-999,0.0,0.0,88,-99.99,,,0.00,,2013-10-30 15:22:00,
2013-10-30 09:43:00,27.0,24.0,-100.00,North,-999,0.0,0.0,89,-99.99,,,0.00,,2013-10-30 15:43:00,
2013-10-30 09:54:00,27.0,24.0,-100.00,North,-999,0.0,0.0,89,-99.99,,,0.00,,2013-10-30 15:54:00,
2013-10-30 10:00:00,30.0,28.0,-100.00,North,-999,0.0,0.0,90,-99.99,,,0.00,,2013-10-30 16:00:00,
2013-10-30 10:23:00,29.0,26.0,-100.00,North,-999,0.0,0.0,90,-99.99,,,0.00,,2013-10-30 16:23:00,
2013-10-30 10:42:00,30.0,28.0,-100.00,North,-999,0.0,0.0,90,-99.99,,,0.00,,2013-10-30 16:42:00,
2013-10-30 10:53:00,30.0,28.0,-100.00,North,-999,0.0,0.0,90,-99.99,,,0.00,,2013-10-30 16:53:00,
2013-10-30 11:00:00,32.0,30.0,-100.00,WSW,245,4.0,7.0,91,-99.99,,,0.00,,2013-10-30 17:00:00,
2013-10-30 11:22:00,31.0,29.0,-100.00,SW,225,4.0,6.0,90,-99.99,,,0.00,,2013-10-30 17:22:00,
2013-10-30 11:42:00,32.0,30.0,-100.00,WSW,245,4.0,7.0,91,-99.99,,,0.00,,2013-10-30 17:42:00,
2013-10-30 11:52:00,32.0,30.0,-100.00,WSW,245,4.0,7.0,91,-99.99,,,0.00,,2013-10-30 17:52:00,
2013-10-30 12:00:00,36.0,32.0,-100.00,West,265,11.0,15.0,83,-99.99,,,0.00,,2013-10-30 18:00:00,
2013-10-30 12:21:00,35.0,32.0,-100.00,WSW,255,8.0,9.0,91,-99.99,,,0.00,,2013-10-30 18:21:00,
2013-10-30 12:42:00,36.0,32.0,-100.00,West,265,11.0,15.0,83,-99.99,,,0.00,,2013-10-30 18:42:00,
2013-10-30 12:52:00,36.0,32.0,-100.00,West,265,11.0,15.0,83,-99.99,,,0.00,,2013-10-30 18:52:00,
2013-10-30 13:00:00,41.0,29.0,-100.00,West,260,10.0,15.0,64,-99.99,,,0.00,,2013-10-30 19:00:00,
2013-10-30 13:21:00,38.0,29.0,-100.00,West,260,14.0,19.0,69,-99.99,,,0.00,,2013-10-30 19:21:00,
2013-10-30 13:52:00,41.0,29.0,-100.00,West,260,10.0,15.0,64,-99.99,,,0.00,,2013-10-30 19:52:00,
2013-10-30 14:00:00,43.0,27.0,-100.00,West,280,15.0,19.0,52,-99.99,,,0.00,,2013-10-30 20:00:00,
2013-10-30 14:21:00,43.0,28.0,-100.00,West,270,12.0,19.0,56,-99.99,,,0.00,,2013-10-30 20:21:00,
2013-10-30 14:42:00,43.0,27.0,-100.00,West,280,15.0,19.0,52,-99.99,,,0.00,,2013-10-30 20:42:00,
2013-10-30 14:52:00,43.0,27.0,-100.00,West,280,15.0,19.0,52,-99.99,,,0.00,,2013-10-30 20:52:00,
2013-10-30 15:00:00,46.0,27.0,-100.00,West,280,8.0,13.0,46,-99.99,,,0.00,,2013-10-30 21:00:00,
2013-10-30 15:21:00,45.0,27.0,-100.00,West,275,11.0,16.0,50,-99.99,,,0.00,,2013-10-30 21:21:00,
2013-10-30 15:43:00,46.0,27.0,-100.00,West,280,8.0,13.0,46,-99.99,,,0.00,,2013-10-30 21:43:00,
2013-10-30 15:53:00,46.0,27.0,-100.00,West,280,8.0,13.0,46,-99.99,,,0.00,,2013-10-30 21:53:00,
2013-10-30 16:23:00,46.0,26.0,-100.00,WNW,285,10.0,16.0,44,-99.99,,,0.00,,2013-10-30 22:23:00,
2013-10-30 16:43:00,47.0,27.0,-100.00,West,260,9.0,13.0,45,-99.99,,,0.00,,2013-10-30 22:43:00,
2013-10-30 16:53:00,47.0,27.0,-100.00,West,260,9.0,13.0,45,-99.99,,,0.00,,2013-10-30 22:53:00,
2013-10-30 17:00:00,46.0,28.0,-100.00,West,275,9.0,14.0,48,-99.99,,,0.00,,2013-10-30 23:00:00,
2013-10-30 17:12:00,47.0,28.0,-100.00,West,270,9.0,12.0,47,-99.99,,,0.00,,2013-10-30 23:12:00,
2013-10-30 17:42:00,46.0,28.0,-100.00,West,275,9.0,14.0,48,-99.99,,,0.00,,2013-10-30 23:42:00,
2013-10-30 17:53:00,46.0,28.0,-100.00,West,275,9.0,14.0,48,-99.99,,,0.00,,2013-10-30 23:53:00,
2013-10-30 18:01:00,43.0,25.0,-100.00,West,275,9.0,11.0,48,-99.99,,,0.00,,2013-10-31 00:01:00,
2013-10-30 18:22:00,45.0,27.0,-100.00,WNW,285,9.0,12.0,49,-99.99,,,0.00,,2013-10-31 00:22:00,
2013-10-30 18:42:00,43.0,25.0,-100.00,West,275,9.0,11.0,48,-99.99,,,0.00,,2013-10-31 00:42:00,
2013-10-30 18:52:00,43.0,25.0,-100.00,West,275,9.0,11.0,48,-99.99,,,0.00,,2013-10-31 00:52:00,
2013-10-30 19:00:00,41.0,28.0,-100.00,West,275,10.0,14.0,59,-99.99,,,0.00,,2013-10-31 01:00:00,
2013-10-30 19:22:00,41.0,26.0,-100.00,WSW,255,7.0,9.0,53,-99.99,,,0.00,,2013-10-31 01:22:00,
2013-10-30 19:42:00,41.0,28.0,-100.00,West,275,10.0,14.0,59,-99.99,,,0.00,,2013-10-31 01:42:00,
2013-10-30 19:52:00,41.0,28.0,-100.00,West,275,10.0,14.0,59,-99.99,,,0.00,,2013-10-31 01:52:00,
2013-10-30 20:22:00,40.0,28.0,-100.00,West,280,11.0,14.0,63,-99.99,,,0.00,,2013-10-31 02:22:00,
2013-10-30 21:00:00,41.0,25.0,-100.00,West,280,17.0,23.0,54,-99.99,,,0.00,,2013-10-31 03:00:00,
2013-10-30 21:11:00,41.0,26.0,-100.00,West,280,17.0,23.0,55,-99.99,,,0.00,,2013-10-31 03:11:00,
2013-10-30 21:22:00,41.0,26.0,-100.00,West,280,17.0,23.0,55,-99.99,,,0.00,,2013-10-31 03:22:00,
2013-10-30 21:44:00,41.0,25.0,-100.00,West,280,17.0,23.0,54,-99.99,,,0.00,,2013-10-31 03:44:00,
2013-10-30 21:55:00,41.0,25.0,-100.00,West,280,17.0,23.0,54,-99.99,,,0.00,,2013-10-31 03:55:00,
2013-10-30 22:00:00,39.0,25.0,-100.00,West,270,13.0,17.0,58,-99.99,,,0.00,,2013-10-31 04:00:00,
2013-10-30 22:43:00,39.0,25.0,-100.00,West,270,13.0,17.0,58,-99.99,,,0.00,,2013-10-31 04:43:00,
2013-10-30 22:54:00,39.0,25.0,-100.00,West,270,13.0,17.0,58,-99.99,,,0.00,,2013-10-31 04:54:00,
2013-10-30 23:00:00,37.0,25.0,-100.00,West,270,11.0,12.0,61,-99.99,,,0.00,,2013-10-31 05:00:00,
2013-10-30 23:43:00,37.0,25.0,-100.00,West,270,11.0,12.0,61,-99.99,,,0.00,,2013-10-31 05:43:00,
2013-10-30 23:52:00,37.0,25.0,-100.00,West,270,11.0,12.0,61,-99.99,,,0.00,,2013-10-31 05:52:00,